Tracking 20719 objects as of 26-May-2020
HD Live streaming from Space Station
objects crossing your sky now

BRICSAT 2 (NO-103)

Track BRICSAT 2 (NO-103) now!
10-day predictions
BRICSAT 2 (NO-103) is classified as:


NORAD ID: 44355
Int'l Code: 2019-036S
Perigee: 309.4 km
Apogee: 787.7 km
Inclination: 28.5 °
Period: 95.5 minutes
Semi major axis: 6919 km
RCS: Unknown
Launch date: June 25, 2019
Source: United States (US)
Launch site: AIR FORCE EASTERN TEST RANGE (AFETR)

Uplink (MHz): 28.120/145.825
Downlink (MHz): 145.825/435.350
Beacon (MHz): 437.605
Mode: 1k2/9k6 FSK
Call sign: USNAP1-1
Status: Inactive

aabbcc
Your satellite tracking list
Your tracking list is empty




NASA's NSSDC Master Catalog

Two Line Element Set (TLE):
1 44355U 19036S   20145.18542808 +.00011621 +00000-0 +16112-3 0  9993
2 44355 028.5274 172.5184 0345594 064.0511 299.5270 15.08288828050241
Source of the keplerian elements: AFSPC